Time,TemperatureF,DewpointF,PressureIn,WindDirection,WindDirectionDegrees,WindSpeedMPH,WindSpeedGustMPH,Humidity,HourlyPrecipIn,Conditions,Clouds,dailyrainin,SolarRadiationWatts/m^2,SoftwareType,DateUTC
2013-05-12 00:40:00,53.0,46.0,30.26,ENE,60,3.0,4.0,76,-99.99,,,-99.99,0.000000,,2013-05-12 07:40:00,
2013-05-12 01:21:00,53.0,46.0,30.26,ENE,60,3.0,4.0,76,-99.99,,,-99.99,0.000000,,2013-05-12 08:21:00,
2013-05-12 01:32:00,53.0,46.0,30.26,ENE,60,3.0,4.0,76,-99.99,,,-99.99,0.000000,,2013-05-12 08:32:00,
2013-05-12 07:40:00,54.0,47.0,30.28,NNW,345,1.0,2.0,77,-99.99,,,-99.99,240.000000,,2013-05-12 14:40:00,
2013-05-12 08:21:00,54.0,47.0,30.28,NNW,345,1.0,2.0,77,-99.99,,,-99.99,240.000000,,2013-05-12 15:21:00,
2013-05-12 08:33:00,54.0,47.0,30.28,NNW,345,1.0,2.0,77,-99.99,,,-99.99,240.000000,,2013-05-12 15:33:00,
2013-05-12 08:40:00,63.0,45.0,30.29,ENE,63,1.0,3.0,51,-99.99,,,-99.99,500.000000,,2013-05-12 15:40:00,
2013-05-12 09:23:00,63.0,45.0,30.29,ENE,63,1.0,3.0,51,-99.99,,,-99.99,500.000000,,2013-05-12 16:23:00,
2013-05-12 09:32:00,63.0,45.0,30.29,ENE,63,1.0,3.0,51,-99.99,,,-99.99,500.000000,,2013-05-12 16:32:00,
2013-05-12 09:40:00,68.0,45.0,30.29,East,90,2.0,4.0,44,-99.99,,,-99.99,640.000000,,2013-05-12 16:40:00,
2013-05-12 10:22:00,68.0,45.0,30.29,East,90,2.0,4.0,44,-99.99,,,-99.99,640.000000,,2013-05-12 17:22:00,
2013-05-12 10:32:00,68.0,45.0,30.29,East,90,2.0,4.0,44,-99.99,,,-99.99,640.000000,,2013-05-12 17:32:00,
2013-05-12 10:40:00,73.0,44.0,30.28,NNW,341,1.0,2.0,35,-99.99,,,-99.99,860.000000,,2013-05-12 17:40:00,
2013-05-12 11:22:00,73.0,44.0,30.28,NNW,341,1.0,2.0,35,-99.99,,,-99.99,860.000000,,2013-05-12 18:22:00,
2013-05-12 11:31:00,73.0,44.0,30.28,NNW,341,1.0,2.0,35,-99.99,,,-99.99,860.000000,,2013-05-12 18:31:00,
2013-05-12 11:40:00,77.0,36.0,30.27,South,169,4.0,7.0,22,-99.99,,,-99.99,960.000000,,2013-05-12 18:40:00,
2013-05-12 12:21:00,77.0,36.0,30.27,South,169,4.0,7.0,22,-99.99,,,-99.99,960.000000,,2013-05-12 19:21:00,
2013-05-12 12:32:00,77.0,36.0,30.27,South,169,4.0,7.0,22,-99.99,,,-99.99,960.000000,,2013-05-12 19:32:00,
2013-05-12 13:21:00,77.0,44.0,30.25,West,265,7.0,12.0,32,-99.99,,,-99.99,970.000000,,2013-05-12 20:21:00,
2013-05-12 13:32:00,77.0,44.0,30.25,West,265,7.0,12.0,32,-99.99,,,-99.99,970.000000,,2013-05-12 20:32:00,
2013-05-12 13:40:00,77.0,42.0,30.23,West,277,11.0,21.0,29,-99.99,,,-99.99,940.000000,,2013-05-12 20:40:00,
2013-05-12 14:21:00,77.0,42.0,30.23,West,277,11.0,21.0,29,-99.99,,,-99.99,940.000000,,2013-05-12 21:21:00,
2013-05-12 14:33:00,77.0,42.0,30.23,West,277,11.0,21.0,29,-99.99,,,-99.99,940.000000,,2013-05-12 21:33:00,
2013-05-12 14:40:00,78.0,41.0,30.21,WNW,283,13.0,21.0,27,-99.99,,,-99.99,920.000000,,2013-05-12 21:40:00,
2013-05-12 15:23:00,78.0,41.0,30.21,WNW,283,13.0,21.0,27,-99.99,,,-99.99,920.000000,,2013-05-12 22:23:00,
2013-05-12 15:32:00,78.0,41.0,30.21,WNW,283,13.0,21.0,27,-99.99,,,-99.99,920.000000,,2013-05-12 22:32:00,
2013-05-12 15:40:00,77.0,43.0,30.19,West,275,13.0,23.0,30,-99.99,,,-99.99,750.000000,,2013-05-12 22:40:00,
2013-05-12 16:22:00,77.0,43.0,30.19,West,275,13.0,23.0,30,-99.99,,,-99.99,750.000000,,2013-05-12 23:22:00,
2013-05-12 16:32:00,77.0,43.0,30.19,West,275,13.0,23.0,30,-99.99,,,-99.99,750.000000,,2013-05-12 23:32:00,
2013-05-12 16:40:00,77.0,43.0,30.16,West,274,16.0,29.0,30,-99.99,,,-99.99,610.000000,,2013-05-12 23:40:00,
2013-05-12 17:21:00,77.0,43.0,30.16,West,274,16.0,29.0,30,-99.99,,,-99.99,610.000000,,2013-05-13 00:21:00,
2013-05-12 17:32:00,77.0,43.0,30.16,West,274,16.0,29.0,30,-99.99,,,-99.99,610.000000,,2013-05-13 00:32:00,
2013-05-12 17:40:00,75.0,41.0,30.16,West,263,15.0,23.0,29,-99.99,,,-99.99,420.000000,,2013-05-13 00:40:00,
2013-05-12 18:22:00,75.0,41.0,30.16,West,263,15.0,23.0,29,-99.99,,,-99.99,420.000000,,2013-05-13 01:22:00,
2013-05-12 18:31:00,75.0,41.0,30.16,West,263,15.0,23.0,29,-99.99,,,-99.99,420.000000,,2013-05-13 01:31:00,
2013-05-12 18:40:00,73.0,39.0,30.15,West,268,16.0,27.0,29,-99.99,,,-99.99,220.000000,,2013-05-13 01:40:00,
2013-05-12 19:21:00,73.0,39.0,30.15,West,268,16.0,27.0,29,-99.99,,,-99.99,220.000000,,2013-05-13 02:21:00,
2013-05-12 19:31:00,73.0,39.0,30.15,West,268,16.0,27.0,29,-99.99,,,-99.99,220.000000,,2013-05-13 02:31:00,
2013-05-12 19:40:00,71.0,36.0,30.15,West,277,14.0,25.0,28,-99.99,,,-99.99,20.000000,,2013-05-13 02:40:00,
2013-05-12 20:21:00,71.0,36.0,30.15,West,277,14.0,25.0,28,-99.99,,,-99.99,20.000000,,2013-05-13 03:21:00,
2013-05-12 20:32:00,71.0,36.0,30.15,West,277,14.0,25.0,28,-99.99,,,-99.99,20.000000,,2013-05-13 03:32:00,
2013-05-12 21:40:00,68.0,35.0,30.19,SW,224,4.0,13.0,30,-99.99,,,-99.99,0.000000,,2013-05-13 04:40:00,
2013-05-12 22:21:00,68.0,35.0,30.19,SW,224,4.0,13.0,30,-99.99,,,-99.99,0.000000,,2013-05-13 05:21:00,
2013-05-12 22:32:00,68.0,35.0,30.19,SW,224,4.0,13.0,30,-99.99,,,-99.99,0.000000,,2013-05-13 05:32:00,